User: anonymous   Login
Location: Unspecified
(0.0000°N, 0.0000°E)
Time: 00:02:55
(UTC+00:00)
Language:

INTELSAT 903 - Orbit

View from above orbital plane
View from above orbital plane
View from above satellite
View from above satellite

Ground track
Ground track

The orbit data is extracted from the following two-line orbital elements,

1 27403U 02016A   18294.81977380 -.00000225  00000-0  00000+0 0  9991
2 27403   0.9018  93.2291 0001750  78.8314 121.7913  1.00271688 60616
Epoch (UTC): 21 October 2018 19:40:28
Eccentricity: 0.0001750
inclination: 0.9018°
perigee height: 35779 km
apogee height: 35793 km
right ascension of ascending node: 93.2291°
argument of perigee: 78.8314°
revolutions per day: 1.00271688
mean anomaly at epoch: 121.7913°
orbit number at epoch: 6061

The dashed part of the orbit path shows where the satellite is in the earth's shadow,  

DLR